Flag for Germany Weather past 2 weeks in Warstein, North Rhine-Westphalia, Germany

Now
50 °F

Partly sunny.


Feels Like: 44 °F
Forecast: 42 / 64 °F
Wind: 17 mph from Southwest

Location: Paderborn / Lippstadt

Current Time: May 7, 2015 at 10:42:50 AM

Latest Report: May 7, 2015 at 10:20 AM


Visibility: N/A

Pressure: 30.04 "Hg

Humidity: 67%

Dew point: 39 °F

Location of WarsteinLocation

Historic Weather in Warstein — Graph

°F

Warstein temperature yesterday

Maximum temperature yesterday: 61 °F (at 1:50 PM)
Minimum temperature yesterday: 48 °F (at 9:20 PM)
Average temperature yesterday: 53 °F

Past Weeks' High & Low Weather Summary

 TemperatureHumidityPressure
High73 °F (May 5, 1:50 PM)100% (Apr 26, 10:50 PM)30.36 "Hg (Apr 26, 10:50 PM)
Low30 °F (Apr 28, 4:50 AM)26% (Apr 29, 2:20 PM)29.47 "Hg (May 5, 5:20 AM)
Average50 °F70%29.86 "Hg
* Reported Apr 22 9:20 AM — May 7 9:20 AM, Warstein, Weather by CustomWeather, © 2015

Note: Actual official high and low records may vary slightly from our data, if they occured in-between our weather recording intervals... More about our weather records

Advertising

Warstein weather history for previous 24 hours

 ConditionsComfort  
Time TempWeatherWind HumidityBarometerVisibility
9:20 AM
Thu, May 7
50 °FScattered clouds.21 mph71%30.01 "HgN/A
8:50 AM50 °FScattered clouds.22 mph71%30.01 "HgN/A
8:20 AM48 °FScattered clouds.18 mph71%30.01 "HgN/A
7:50 AM48 °FScattered clouds.16 mph71%30.01 "HgN/A
7:20 AM48 °FSunny.14 mph71%29.98 "Hg10 mi
6:50 AM46 °FSunny.13 mph76%29.98 "Hg10 mi
6:20 AM45 °FClear.14 mph81%29.98 "Hg10 mi
5:50 AM46 °FClear.13 mph76%29.98 "Hg10 mi
5:20 AM46 °FClear.14 mph76%29.95 "Hg10 mi
4:50 AM45 °FClear.13 mph76%29.95 "Hg10 mi
4:20 AM46 °FClear.14 mph71%29.95 "Hg10 mi
3:50 AM46 °FClear.15 mph71%29.95 "Hg10 mi
3:20 AM46 °FClear.15 mph71%29.95 "Hg10 mi
2:50 AM46 °FClear.13 mph76%29.95 "Hg10 mi
2:20 AM46 °FClear.13 mph76%29.95 "Hg10 mi
1:50 AM46 °FClear.13 mph76%29.95 "Hg10 mi
1:20 AM48 °FClear.13 mph76%29.95 "Hg10 mi
12:50 AM48 °FClear.15 mph76%29.95 "Hg10 mi
12:20 AM48 °FClear.15 mph76%29.95 "Hg10 mi
11:50 PM
Wed, May 6
48 °FClear.12 mph76%29.92 "Hg10 mi
11:20 PM48 °FClear.12 mph76%29.95 "Hg10 mi
10:50 PM48 °FClear.12 mph76%29.92 "Hg10 mi
10:20 PM48 °FClear.12 mph82%29.92 "Hg10 mi
9:50 PM48 °FSunny.10 mph82%29.92 "Hg10 mi
9:20 PM48 °FSunny.10 mph82%29.92 "Hg10 mi
8:50 PM50 °FPassing clouds.13 mph76%29.92 "HgN/A
8:20 PM50 °FScattered clouds.13 mph71%29.92 "HgN/A
7:50 PM52 °FSunny.16 mph72%29.92 "Hg10 mi
7:20 PM52 °FSunny.10 mph67%29.89 "Hg10 mi
6:50 PM50 °FSunny.12 mph76%29.92 "Hg10 mi
6:20 PM52 °FRain showers. Partly sunny.16 mph67%29.92 "HgN/A
5:50 PM52 °FPartly sunny.17 mph72%29.89 "HgN/A
5:20 PM52 °FRain showers. Partly sunny.17 mph67%29.89 "HgN/A
4:50 PM59 °FSunny.18 mph39%29.86 "Hg10 mi
4:20 PM59 °FSunny.16 mph45%29.86 "Hg10 mi
3:50 PM59 °FSunny.21 mph39%29.86 "Hg10 mi
3:20 PM59 °FSunny.21 mph39%29.86 "Hg10 mi
2:50 PM61 °FSunny.22 mph39%29.86 "Hg10 mi
2:20 PM59 °FPassing clouds.18 mph39%29.86 "HgN/A
1:50 PM61 °FSunny.22 mph36%29.86 "Hg10 mi
1:20 PM59 °FSunny.21 mph39%29.86 "Hg10 mi
12:50 PM59 °FSunny.16 mph42%29.86 "Hg10 mi
12:20 PM59 °FPassing clouds.16 mph45%29.86 "HgN/A
11:50 AM59 °FSunny.18 mph45%29.89 "Hg10 mi
11:20 AM57 °FSunny.17 mph48%29.89 "Hg10 mi
10:50 AM57 °FSunny.17 mph48%29.89 "Hg10 mi
10:20 AM57 °FSunny.20 mph51%29.89 "Hg10 mi
Weather by CustomWeather, © 2015

See weather overviewHow to use our weather pages